Tracking 25612 objects as of 19-May-2022
HD Live streaming from Space Station
objects crossing your sky now

COSMOS 1375 DEB

Track COSMOS 1375 DEB now!
10-day predictions


NORAD ID: 16380
Int'l Code: 1982-055U
Perigee: 997.8 km
Apogee: 1,059.8 km
Inclination: 65.8 °
Period: 105.6 minutes
Semi major axis: 7399 km
RCS: 0.0936 m2 (small)
Launch date: June 6, 1982
Source: Commonwealth of Independent States (former USSR) (CIS)
Launch site: PLESETSK MISSILE AND SPACE COMPLEX (PKMTR)

Note: This is SATELLITE DEBRIS
aabbcc
Your satellite tracking list
Your tracking list is empty




NASA's NSSDC Master Catalog

Two Line Element Set (TLE):
1 16380U 82055U   22139.14075441 -.00000005  00000-0  91533-4 0  9992
2 16380  65.8387  26.4401 0041895 118.9863 318.2396 13.63877632821310
Source of the keplerian elements: AFSPC